Bangkok, Thailand

05:47 AM +07 on December 17, 2018 (GMT +0700)
Parkway Chalet | | Change Station

Elev 5 ft 13.79 °N, 100.73 °E | Updated 31 seconds ago

Klart
Klart
75 °F
Feels Like 74 °F
N
0
Vind Växlande Vind from Ostlig
Gusts 0.0 miles/tim

Idag
High -- | Low -- °F
--% Chance of Precip.
Yesterday
High -- | Low -- °F
Precip. -- tum
Lufttryck 29.95 tum
Sikt 6.2 miles
Molnigt Few 3000 ft
Värmeindex 74 °F
Daggpunkt 73 °F
Luftfuktighet 93%
Rainfall 0.00 tum
Snow Depth Not available.
6:33 AM 5:52 PM
Andra kvarteret, 64% visible
METAR VTBD 162230Z 03010KT 9999 FEW030 25/20 Q1014 NOSIG
Lufttryck 29.95 tum
Sikt 6.2 miles
Molnigt Few 3000 ft
Värmeindex 74 °F
Daggpunkt 73 °F
Luftfuktighet 93%
Rainfall 0.00 tum
Snow Depth Not available.
6:33 AM 5:52 PM
Andra kvarteret, 64% visible
METAR VTBD 162230Z 03010KT 9999 FEW030 25/20 Q1014 NOSIG

Get Severe Weather Alerts

Thanks for signing up!

Be on the lookout for a verification email in your inbox.

You'll start receiving the daily forecast at 6 AM.

×

10-Day Weather Forecast

No radar image for this location.
×

Almanac

Astronomi

Dec. 17, 2018 Rise Set
Actual Time
Civil Twilight
Nautical Twilight
Astronomical Twilight
Månen
Length Of Visible Light
Dagens längd
Tomorrow will be .
, % of the Moon is Illuminated

Today's Extremes

Country Highs Country Lows

Community

WunderPhotos

Category 6

Welcome to Category 6. This is the collective home for Weather Underground's featured writeups by Dr. Jeff Masters (right), Bob Henson (left), Chris Burt, and other regular contributors.

Nearby

Air Quality

  Air Quality AQ Index Pollutant
Not available.

Snödjup

Station Depth Elevation

Earthquake Activity

Stad Distance Mag. Time & Date
Minimum magnitude displayed is 2.5.

Coastal Water Temperatures

Plats Temperatur

Stations

Nearby Weather Stations

Station Location Temp Vindavkylning Daggpunkt Luftfuktighet Vind Precip. Elev Uppdaterad Type